CZ-6A DEB, 56627

Orbit data source: Space-Track

CZ-6A DEB, 56627 is space debris in SSO originally from a launch on Fri, 11 Nov 2022 UTC launched from the Taiyaun Space Center, China (TSC). Debris objects in space refer to the collection of defunct objects orbiting the Earth. Examples of debris include non-operational satellites, rocket bodies, and fragments generated from explosions, collisions, or faulty payload assembly.

Loading next visibility...
Identifier
56627, 2022-151AFB
Orbit
SSO
Country
Flag of CNCN / PRC
Related business
Manufacturer
SAST
Mission
Spacecraft
Bus & Motor
Unknown
Mass
Unknown
Launch date (UTC)
2022-11-11 (4 years ago)
Launch vehicle
Unknown
Launch site
Taiyaun Space Center, China (TSC)
Object type
Payload
Rocket body
Debris
Shape & HBR
Unknown shape, 0.1 m
Radar Cross Section
Small (<0.1 m²)

Expand to show TLE details & history
Last TLE update: 2 days ago

TLE from 2 days ago
0 CZ-6A DEB
1 56627U 22151AFB 26206.99443896  .00001945  00000-0  92462-3 0  9990
2 56627  98.8239 219.2059 0035391 192.8340 167.1939 14.20274153177250
Epoch: 2026-07-25T23:51Z
TLE epoch observation values (Epoch: 2026-07-25T23:51:59.526Z)
Latitude
0.00001°
Longitude
-82.49086°
Altitude
852.203 km
Speed
7.414 km/s
True Right ascension
14h 36m 49s
True Declination
0° 00' 00"
Sunlit
Object was in daylight at epoch
Visualization orbit readout
Latitude
Unknown
Longitude
Unknown
Altitude
Unknown
Speed
Unknown
Apparent Right ascension
Unknown
Apparent Declination
Unknown
Sunlit
N/A
Visualization observer readout
Local Sidereal Time
04:13:26
Azimuth
Unknown
Elevation
Unknown
Doppler factor
Unknown
Orbital elements
Apogee altitude
847.07 km
Perigee altitude
796.109 km
Semi-major axis
7,199.726 km
Eccentricity
0.00354
Inclination
98.8239°
RAAN
219.2059°
Arg. of periapsis
192.834°
True anomaly
167.28341°
Mean anomaly
167.1939°
Eccentric anomaly
167.23869°
Mean motion
3.55279 °/min
Orbital period
101.33 mins
BSTAR
0.00092462
Loading maneuver chart data...
Computing Atmospheric mass density...
Loading historical data...
Loading historical data...
Loading historical data...
Loading historical data...
Loading historical data...
Loading historical data...
Loading historical data...

Documentation

Showing up to 5 results
|